IV3ONZ Weather Reports


Display with metric or nautical units.
time (UTC)temp
F
wind
direction
speed
MPH
gust
MPH
rain 1hr
in
rain 24hr
in
rain mn
in
humidity
%
barometer
mb
20260507193214 59 0 0.0 0.0 0.00 0.00 0.00 87 1017.9
20260507192503 59 0 0.0 0.0 0.00 0.00 0.00 87 1017.7
20260507192216 59 0 0.0 0.0 0.00 0.00 0.00 87 1017.7
20260507191503 59 0 0.0 0.0 0.00 0.00 0.00 86 1017.6
20260507191003 59 0 0.0 0.0 0.00 0.00 0.00 86 1017.4
20260507190504 59 0 0.0 0.0 0.00 0.00 0.00 86 1017.7
20260507190217 60 0 0.0 0.0 0.00 0.00 0.00 86 1017.3
20260507185503 60 0 0.0 0.0 0.00 0.00 0.00 85 1017.3
20260507185003 60 0 0.0 0.0 0.00 0.00 0.00 84 1017.2
20260507184504 60 0 0.0 0.0 0.00 0.00 0.00 83 1017.1
20260507184003 61 89 0.0 1.0 0.00 0.00 0.00 82 1017.4
20260507183504 60 92 1.0 2.0 0.00 0.00 0.00 82 1017.0
20260507183004 61 95 1.0 2.0 0.00 0.00 0.00 82 1016.9
20260507182504 61 97 1.0 2.0 0.00 0.00 0.00 81 1016.9
20260507182003 62 97 1.0 2.0 0.00 0.00 0.00 79 1016.7
20260507181504 62 98 0.0 2.0 0.00 0.00 0.00 78 1017.0
20260507181217 62 99 1.0 2.0 0.00 0.00 0.00 78 1016.9
20260507180503 63 99 1.0 2.0 0.00 0.00 0.00 76 1016.9
20260507180004 64 93 1.0 2.0 0.00 0.00 0.00 73 1016.8
20260507175504 64 87 1.0 2.0 0.00 0.00 0.00 71 1016.9
20260507175003 65 80 1.0 2.0 0.00 0.00 0.00 69 1016.6
20260507174503 65 50 1.0 3.0 0.00 0.00 0.00 66 1016.5
20260507174215 65 29 1.0 3.0 0.00 0.00 0.00 65 1016.8
20260507173503 67 40 0.0 2.0 0.00 0.00 0.00 62 1016.6
20260507173004 68 202 0.0 2.0 0.00 0.00 0.00 61 1016.6
20260507172503 68 237 1.0 3.0 0.00 0.00 0.00 60 1016.6
20260507172217 67 227 1.0 3.0 0.00 0.00 0.00 62 1016.5
20260507171504 67 216 2.0 3.0 0.00 0.00 0.00 64 1016.6
20260507171003 66 212 2.0 3.0 0.00 0.00 0.00 65 1016.7
20260507170503 66 192 1.0 2.0 0.00 0.00 0.00 65 1016.7
20260507170005 67 172 1.0 2.0 0.00 0.00 0.00 65 1016.6
20260507165504 65 161 1.0 2.0 0.00 0.00 0.00 67 1016.7
20260507165004 66 148 0.0 2.0 0.00 0.00 0.00 67 1016.5
20260507164504 66 141 0.0 3.0 0.00 0.00 0.00 66 1016.5
20260507164003 66 178 1.0 4.0 0.00 0.00 0.00 66 1016.6
20260507163503 65 189 3.0 6.0 0.00 0.02 0.00 67 1016.6
20260507163216 65 182 3.0 6.0 0.00 0.04 0.00 66 1016.5
20260507162504 65 170 2.0 4.0 0.00 0.06 0.00 66 1016.5
20260507162003 65 169 2.0 3.0 0.00 0.06 0.00 65 1016.7
20260507161715 65 175 2.0 3.0 0.00 0.06 0.00 65 1016.6
20260507161003 65 159 3.0 6.0 0.00 0.06 0.00 65 1016.6
20260507160505 65 155 2.0 6.0 0.00 0.06 0.00 65 1016.4
20260507160004 65 178 2.0 4.0 0.00 0.06 0.00 64 1016.4
20260507155503 66 204 2.0 4.0 0.00 0.06 0.00 62 1016.9
20260507155003 65 207 3.0 6.0 0.00 0.06 0.00 61 1016.7
20260507154504 66 187 2.0 6.0 0.00 0.06 0.00 61 1016.7
20260507154216 66 194 3.0 6.0 0.00 0.06 0.00 60 1016.6
20260507153714 66 200 3.0 8.0 0.00 0.06 0.00 60 1016.4
20260507153003 66 217 4.0 9.0 0.00 0.06 0.00 58 1016.6
20260507152504 67 211 5.0 10.0 0.00 0.06 0.00 57 1016.4
20260507152004 67 210 7.0 10.0 0.00 0.06 0.00 56 1016.3
20260507151504 67 219 6.0 10.0 0.00 0.06 0.00 55 1016.3
20260507151003 68 203 5.0 10.0 0.00 0.06 0.00 55 1016.0
20260507150504 68 166 5.0 11.0 0.00 0.06 0.00 60 1016.1
20260507150005 67 161 6.0 11.0 0.00 0.06 0.00 60 1015.8
20260507145713 67 167 6.0 11.0 0.00 0.06 0.00 59 1015.6
20260507145003 67 168 7.0 13.0 0.00 0.06 0.00 59 1015.4
20260507144714 68 174 6.0 13.0 0.00 0.06 0.00 60 1015.7
20260507144003 68 211 6.0 11.0 0.00 0.06 0.00 60 1015.6
20260507143504 68 213 7.0 11.0 0.00 0.06 0.00 57 1015.4
20260507143003 68 193 8.0 13.0 0.00 0.06 0.00 56 1015.6
20260507142503 68 180 8.0 13.0 0.00 0.06 0.00 59 1015.7
20260507142003 68 188 8.0 13.0 0.00 0.06 0.00 58 1015.4
20260507141716 68 184 8.0 13.0 0.00 0.06 0.00 63 1015.5
20260507141007 67 187 8.0 13.0 0.00 0.06 0.00 66 1015.5
20260507140503 68 199 6.0 13.0 0.00 0.06 0.00 68 1015.5
20260507140004 68 208 6.0 13.0 0.00 0.06 0.00 70 1015.9
20260507135503 68 209 6.0 13.0 0.00 0.06 0.00 70 1015.5
20260507135003 69 199 6.0 10.0 0.00 0.06 0.00 71 1015.5
20260507134503 68 184 5.0 9.0 0.00 0.06 0.00 74 1015.6
20260507134003 68 172 5.0 9.0 0.00 0.06 0.00 73 1015.5
20260507133503 67 175 5.0 10.0 0.00 0.06 0.00 76 1015.8
20260507133003 68 188 6.0 10.0 0.00 0.06 0.00 75 1015.9
20260507132503 66 197 6.0 10.0 0.00 0.06 0.00 77 1016.0
20260507132214 66 199 7.0 10.0 0.00 0.06 0.00 78 1015.8
20260507131503 67 189 6.0 10.0 0.00 0.06 0.00 76 1015.8
20260507131003 67 179 6.0 9.0 0.00 0.06 0.00 76 1015.7
20260507130503 67 179 5.0 9.0 0.00 0.06 0.00 74 1015.9
20260507130004 68 184 6.0 11.0 0.00 0.06 0.00 75 1015.8
20260507125714 67 191 6.0 11.0 0.00 0.06 0.00 73 1015.7
20260507125004 67 185 6.0 11.0 0.00 0.06 0.00 78 1015.9
20260507124503 67 193 5.0 10.0 0.00 0.06 0.00 72 1016.0
20260507124003 67 196 5.0 10.0 0.00 0.06 0.00 74 1015.8
20260507123504 67 194 5.0 9.0 0.00 0.06 0.00 74 1016.1
20260507123004 68 203 6.0 9.0 0.00 0.06 0.00 74 1015.9
20260507122503 67 204 6.0 9.0 0.00 0.06 0.00 76 1015.8
20260507122004 67 188 5.0 11.0 0.00 0.06 0.00 76 1015.9
20260507121504 67 182 5.0 11.0 0.00 0.06 0.00 77 1016.1
20260507121003 69 178 4.0 10.0 0.00 0.06 0.00 74 1015.8
20260507120503 69 185 5.0 10.0 0.00 0.06 0.00 74 1015.8
20260507120004 67 198 6.0 10.0 0.00 0.06 0.00 76 1015.9
20260507115504 67 187 6.0 10.0 0.00 0.06 0.00 76 1015.9
20260507115212 67 179 5.0 10.0 0.00 0.06 0.00 75 1015.9
20260507114715 67 165 5.0 10.0 0.00 0.06 0.00 75 1016.0
20260507114003 67 160 4.0 10.0 0.00 0.06 0.00 74 1016.1
20260507113503 68 175 4.0 10.0 0.00 0.06 0.00 74 1016.1
20260507113005 67 185 5.0 13.0 0.00 0.09 0.00 75 1016.1
20260507112503 67 176 5.0 13.0 0.00 0.09 0.00 75 1016.2
20260507112215 67 173 6.0 13.0 0.00 0.09 0.00 75 1016.1
20260507111504 67 165 6.0 10.0 0.00 0.09 0.00 75 1015.9
20260507111003 67 179 6.0 11.0 0.00 0.09 0.00 73 1016.0
20260507110714 67 183 6.0 11.0 0.00 0.09 0.00 74 1016.2
20260507110217 66 203 6.0 10.0 0.00 0.09 0.00 74 1016.5
20260507105503 67 189 6.0 10.0 0.00 0.09 0.00 71 1016.4
20260507105213 67 187 6.0 13.0 0.00 0.09 0.00 71 1016.3
20260507104504 67 185 6.0 13.0 0.00 0.09 0.00 71 1016.3
20260507104004 66 171 6.0 11.0 0.00 0.09 0.00 74 1016.5
20260507103503 67 177 6.0 11.0 0.00 0.10 0.00 72 1016.3
20260507103003 67 174 6.0 11.0 0.00 0.10 0.00 72 1016.4
20260507102503 67 176 5.0 11.0 0.00 0.10 0.00 71 1016.5
20260507102216 67 174 5.0 11.0 0.00 0.10 0.00 69 1016.5
20260507101503 67 183 6.0 10.0 0.00 0.10 0.00 69 1016.3
20260507101003 66 198 7.0 14.0 0.00 0.10 0.00 70 1016.3
20260507100503 66 204 8.0 14.0 0.00 0.10 0.00 71 1016.1
20260507100004 66 190 7.0 15.0 0.00 0.10 0.00 70 1016.5
20260507095503 66 174 7.0 15.0 0.00 0.10 0.00 71 1016.4
20260507095214 67 176 7.0 15.0 0.00 0.10 0.00 70 1016.5
20260507094503 66 181 6.0 11.0 0.00 0.10 0.00 70 1016.4
20260507094003 67 174 6.0 10.0 0.00 0.10 0.00 71 1016.4
20260507093503 66 179 6.0 10.0 0.00 0.10 0.00 72 1016.3
20260507093004 67 175 6.0 10.0 0.00 0.10 0.00 71 1016.4
20260507092504 67 168 7.0 14.0 0.00 0.11 0.00 69 1016.2
20260507092003 66 176 7.0 14.0 0.00 0.11 0.00 70 1016.2
20260507091503 66 182 6.0 14.0 0.00 0.11 0.00 71 1016.3
20260507091003 67 175 6.0 14.0 0.00 0.11 0.00 70 1016.1
20260507090503 66 185 8.0 13.0 0.00 0.11 0.00 73 1016.3
20260507090005 66 188 8.0 15.0 0.00 0.11 0.00 73 1016.3
20260507085503 66 187 8.0 15.0 0.00 0.11 0.00 72 1016.2
20260507085215 66 183 8.0 15.0 0.00 0.11 0.00 72 1016.2
20260507084503 65 182 7.0 15.0 0.00 0.11 0.00 73 1016.5
20260507084215 66 192 8.0 15.0 0.00 0.11 0.00 73 1016.3
20260507083503 65 182 7.0 13.0 0.00 0.11 0.00 73 1016.2
20260507083004 65 171 6.0 13.0 0.00 0.11 0.00 74 1016.1
20260507082714 64 175 7.0 13.0 0.00 0.11 0.00 75 1016.1
20260507082004 67 162 7.0 14.0 0.00 0.13 0.00 73 1016.0
20260507081503 66 166 7.0 15.0 0.00 0.13 0.00 74 1015.8
20260507081003 66 166 7.0 15.0 0.00 0.13 0.00 74 1016.1
20260507080503 66 144 8.0 14.0 0.00 0.14 0.00 76 1015.9
20260507080005 66 137 8.0 15.0 0.00 0.15 0.00 78 1015.7
20260507075504 66 148 6.0 15.0 0.00 0.15 0.00 78 1015.8
20260507075003 66 154 5.0 10.0 0.00 0.16 0.00 78 1015.7
20260507074504 66 151 4.0 13.0 0.00 0.17 0.00 78 1015.9
20260507074216 66 158 4.0 13.0 0.00 0.17 0.00 78 1015.6
20260507073503 65 145 7.0 13.0 0.00 0.19 0.00 79 1015.8
20260507073004 65 144 6.0 11.0 0.00 0.20 0.00 79 1015.7
20260507072504 66 150 4.0 11.0 0.00 0.20 0.00 77 1015.5
20260507072004 66 148 4.0 9.0 0.00 0.20 0.00 77 1015.6
20260507071504 66 157 5.0 10.0 0.00 0.21 0.00 79 1015.4
20260507071003 64 163 5.0 10.0 0.00 0.23 0.00 82 1015.7
20260507070717 64 158 5.0 10.0 0.00 0.24 0.00 82 1015.7
20260507070215 63 165 4.0 8.0 0.00 0.25 0.00 83 1015.5
20260507065504 63 162 4.0 10.0 0.00 0.26 0.00 83 1015.6
20260507065003 64 144 4.0 10.0 0.00 0.27 0.00 81 1015.5
20260507064503 64 165 5.0 10.0 0.00 0.28 0.00 79 1015.4
20260507064003 64 176 5.0 10.0 0.00 0.28 0.00 78 1015.3
20260507063503 64 172 6.0 10.0 0.00 0.30 0.00 78 1015.3
20260507063004 64 170 6.0 11.0 0.00 0.30 0.00 79 1015.3
20260507062503 64 170 6.0 15.0 0.00 0.31 0.00 80 1015.1
20260507062003 64 170 6.0 15.0 0.00 0.33 0.00 81 1015.3
20260507061717 64 168 6.0 15.0 0.00 0.33 0.00 82 1015.0
20260507061003 64 147 6.0 11.0 0.00 0.34 0.00 82 1015.1
20260507060504 64 147 6.0 11.0 0.00 0.34 0.00 83 1015.0
20260507060005 63 146 5.0 9.0 0.00 0.34 0.00 84 1015.3
20260507055503 63 139 5.0 8.0 0.00 0.34 0.00 85 1015.1
20260507055003 62 140 4.0 8.0 0.00 0.35 0.00 85 1015.2
20260507054714 62 136 3.0 7.0 0.00 0.35 0.00 86 1015.1
20260507054003 61 135 3.0 4.0 0.00 0.35 0.00 88 1015.0
20260507053503 61 132 3.0 6.0 0.00 0.35 0.00 87 1014.7
20260507053004 61 127 3.0 6.0 0.00 0.38 0.00 88 1014.9
20260507052503 61 131 3.0 6.0 0.00 0.43 0.00 88 1014.9
20260507052003 61 134 3.0 4.0 0.00 0.48 0.00 87 1014.8
20260507051504 61 140 3.0 6.0 0.00 0.60 0.00 88 1014.8
20260507051003 61 137 3.0 6.0 0.00 0.64 0.00 88 1014.6
20260507050503 61 130 3.0 6.0 0.00 0.64 0.00 88 1014.6
20260507050216 61 133 3.0 6.0 0.00 0.64 0.00 88 1014.4
20260507045503 61 129 3.0 6.0 0.00 0.64 0.00 88 1014.6
20260507045004 61 119 4.0 7.0 0.00 0.64 0.00 88 1014.5
20260507044504 61 110 4.0 7.0 0.00 0.64 0.00 89 1014.5
20260507044213 61 108 3.0 7.0 0.00 0.64 0.00 89 1014.5
20260507043503 60 123 3.0 4.0 0.00 0.64 0.00 89 1014.4
20260507043003 60 122 3.0 4.0 0.00 0.64 0.00 90 1014.5
20260507042717 60 117 2.0 4.0 0.00 0.64 0.00 90 1014.5
20260507042003 60 113 1.0 3.0 0.00 0.64 0.00 90 1014.4
20260507041503 60 118 1.0 2.0 0.00 0.64 0.00 90 1014.3
20260507041004 60 125 1.0 2.0 0.00 0.64 0.00 90 1014.3
20260507040503 60 130 1.0 2.0 0.00 0.64 0.00 91 1014.3
20260507040004 60 128 2.0 3.0 0.00 0.64 0.00 91 1014.2
20260507035503 60 123 2.0 3.0 0.00 0.64 0.00 91 1014.1
20260507035213 60 119 2.0 3.0 0.00 0.64 0.00 91 1014.4
20260507034503 60 121 2.0 3.0 0.00 0.64 0.00 91 1014.0
20260507034003 60 122 2.0 3.0 0.00 0.64 0.00 91 1014.3
20260507033716 60 117 2.0 4.0 0.00 0.64 0.00 91 1014.3
20260507033003 60 114 3.0 6.0 0.00 0.64 0.00 91 1014.3
20260507032717 60 116 3.0 6.0 0.00 0.64 0.00 91 1014.1
20260507032003 60 124 3.0 6.0 0.00 0.64 0.00 91 1014.1
20260507031503 60 127 3.0 6.0 0.00 0.64 0.00 91 1014.2
20260507031216 60 128 3.0 6.0 0.00 0.64 0.00 91 1014.2
20260507030714 60 129 2.0 4.0 0.00 0.64 0.00 91 1014.0
20260507030003 60 132 2.0 3.0 0.00 0.64 0.00 91 1014.2
20260507025503 60 139 2.0 4.0 0.00 0.64 0.00 91 1014.0
20260507025003 60 142 2.0 4.0 0.00 0.64 0.00 91 1014.0
20260507024503 60 136 3.0 4.0 0.00 0.64 0.00 90 1014.0
20260507024214 60 136 3.0 4.0 0.00 0.64 0.00 90 1014.2
20260507023503 61 145 3.0 6.0 0.00 0.64 0.00 89 1014.2
20260507023003 61 147 3.0 7.0 0.00 0.64 0.00 89 1014.2
20260507022503 61 150 4.0 7.0 0.00 0.64 0.00 89 1014.1
20260507022003 61 150 4.0 7.0 0.00 0.64 0.00 88 1014.0
20260507021714 61 149 3.0 7.0 0.00 0.64 0.00 88 1014.2
20260507021003 61 152 3.0 7.0 0.00 0.64 0.00 88 1014.3
20260507020715 61 158 3.0 7.0 0.00 0.64 0.00 88 1014.2
20260507020004 61 158 3.0 7.0 0.00 0.64 0.00 89 1014.4
20260507015504 61 154 3.0 7.0 0.00 0.64 0.00 89 1014.3
20260507015004 61 163 3.0 7.0 0.00 0.64 0.00 89 1014.4
20260507014503 61 167 4.0 8.0 0.00 0.64 0.00 89 1014.2
20260507014215 61 167 3.0 8.0 0.00 0.64 0.00 89 1014.1
20260507013503 61 158 4.0 9.0 0.00 0.64 0.00 88 1014.1
20260507013004 61 157 4.0 9.0 0.00 0.64 0.00 88 1014.1
20260507012503 61 165 3.0 7.0 0.00 0.64 0.00 87 1014.1
20260507012003 61 166 4.0 7.0 0.00 0.64 0.00 87 1014.0
20260507011504 61 161 4.0 7.0 0.00 0.64 0.00 87 1014.1
20260507010503 61 156 4.0 9.0 0.00 0.64 0.00 87 1014.1
20260507010004 61 153 4.0 9.0 0.00 0.64 0.00 87 1014.3
20260507005503 61 151 4.0 8.0 0.00 0.64 0.00 86 1014.1
20260507005003 61 151 4.0 8.0 0.00 0.64 0.00 86 1014.1
20260507004717 61 156 4.0 9.0 0.00 0.64 0.00 86 1014.1
20260507004003 61 158 4.0 9.0 0.00 0.64 0.00 85 1014.3
20260507003504 61 160 4.0 8.0 0.00 0.64 0.00 86 1014.4
20260507003004 61 168 4.0 8.0 0.00 0.64 0.00 86 1014.3
20260507002504 61 165 3.0 8.0 0.00 0.64 0.00 86 1014.2
20260507002003 61 151 4.0 9.0 0.00 0.64 0.00 86 1014.2
20260507001503 61 151 4.0 9.0 0.00 0.64 0.00 86 1014.3
20260507001003 61 162 4.0 9.0 0.00 0.64 0.00 86 1014.1
20260507000505 61 149 5.0 13.0 0.00 0.64 0.00 86 1014.1
20260507000008 61 143 6.0 13.0 0.00 0.64 0.00 85 1014.3
20260506235503 61 146 5.0 10.0 0.00 0.64 0.64 86 1014.2
20260506235003 61 146 5.0 10.0 0.00 0.64 0.64 86 1014.3
20260506234713 61 146 4.0 10.0 0.00 0.64 0.64 86 1014.3
20260506234003 60 145 4.0 7.0 0.00 0.64 0.64 87 1014.5
20260506233503 60 136 4.0 7.0 0.00 0.64 0.64 87 1014.4
20260506233003 60 126 4.0 7.0 0.00 0.64 0.64 87 1014.3
20260506232503 60 133 4.0 7.0 0.00 0.64 0.64 87 1014.5
20260506232003 60 129 3.0 6.0 0.00 0.64 0.64 87 1014.5
20260506231503 60 124 3.0 6.0 0.00 0.64 0.64 87 1014.4
20260506231003 60 134 3.0 6.0 0.00 0.64 0.64 87 1014.6
20260506230503 60 134 3.0 6.0 0.00 0.64 0.64 87 1014.7
20260506230006 59 135 3.0 7.0 0.00 0.64 0.64 87 1014.6
20260506225504 59 135 3.0 7.0 0.00 0.64 0.64 87 1014.7
20260506225003 59 130 4.0 8.0 0.00 0.64 0.64 87 1014.6
20260506224503 59 132 4.0 8.0 0.00 0.64 0.64 87 1014.5
20260506224003 59 135 4.0 7.0 0.00 0.64 0.64 87 1014.7
20260506223503 59 133 4.0 7.0 0.00 0.64 0.64 87 1014.8
20260506223004 59 129 3.0 6.0 0.00 0.64 0.64 87 1014.4
20260506222715 59 130 3.0 6.0 0.00 0.64 0.64 87 1014.7
20260506222003 58 127 3.0 4.0 0.00 0.64 0.64 87 1014.5
20260506221504 59 125 3.0 6.0 0.00 0.64 0.64 87 1014.5
20260506221003 59 126 3.0 6.0 0.00 0.64 0.64 86 1014.7
20260506220503 59 137 2.0 4.0 0.00 0.64 0.64 86 1014.6
20260506220004 59 131 3.0 7.0 0.00 0.64 0.64 86 1014.4
20260506215503 59 119 4.0 7.0 0.00 0.64 0.64 86 1014.3
20260506215216 59 118 4.0 7.0 0.00 0.64 0.64 86 1014.5
20260506214503 59 128 3.0 6.0 0.00 0.64 0.64 86 1014.4
20260506214003 60 140 3.0 7.0 0.00 0.64 0.64 85 1014.5
20260506213504 60 148 4.0 8.0 0.00 0.64 0.64 83 1014.3
20260506213213 60 155 5.0 8.0 0.00 0.64 0.64 83 1014.4
20260506212503 60 159 4.0 8.0 0.00 0.64 0.64 83 1014.3
20260506212003 60 152 4.0 8.0 0.00 0.64 0.64 83 1014.3
20260506211506 60 146 4.0 8.0 0.00 0.64 0.64 83 1014.2
20260506211004 60 142 5.0 8.0 0.00 0.64 0.64 83 1014.2
20260506210503 60 149 5.0 11.0 0.00 0.64 0.64 83 1014.4
20260506210004 61 156 5.0 11.0 0.00 0.64 0.64 83 1014.5
20260506205503 61 174 5.0 11.0 0.00 0.64 0.64 83 1014.4
20260506205004 61 178 5.0 10.0 0.00 0.64 0.64 81 1014.4
20260506204503 61 169 5.0 13.0 0.00 0.64 0.64 81 1014.6
20260506204004 61 157 5.0 13.0 0.00 0.64 0.64 81 1014.4
20260506203716 61 157 5.0 13.0 0.00 0.64 0.64 81 1014.5
20260506203003 61 165 4.0 8.0 0.00 0.64 0.64 81 1014.4
20260506202503 61 166 4.0 10.0 0.00 0.64 0.64 81 1014.3
20260506202215 61 161 5.0 10.0 0.00 0.64 0.64 81 1014.2
20260506201504 60 140 4.0 9.0 0.00 0.64 0.64 83 1014.2
20260506201003 60 131 3.0 7.0 0.00 0.64 0.64 89 1014.3
20260506200505 60 143 4.0 14.0 0.00 0.64 0.64 90 1014.4
20260506200005 61 154 5.0 14.0 0.00 0.64 0.64 87 1014.3
20260506195503 60 152 4.0 14.0 0.00 0.65 0.64 86 1014.3
20260506195003 61 142 3.0 7.0 0.00 0.65 0.64 88 1014.2
20260506194504 61 139 4.0 7.0 0.00 0.66 0.64 88 1014.0
20260506194003 61 141 4.0 10.0 0.00 0.66 0.64 88 1014.2
20260506193503 61 142 5.0 10.0 0.00 0.66 0.64 88 1014.0